When you browse on this site, cookies collect data to enhance your experience and personalize the content and advertising you see.
Visit our Privacy Policy to learn more. By continuing to use the site, you agree to this use of cookies and data.
  • In Spain
  • List of Countries
  • For 7 days
  • Water Temperature
  • Satellite Maps
  • Weather Map
  • Weather Widgets
  • user-avatar
    Login

    Hourly Weather Macon

    Today, 18 June, Tuesday

    Time Temperature Precipitation Wind Pressure Humidity
    00:00 +25°C° 0.2 mm 3 mps 753 mmHg 88%
    01:00 +25°C° 0 mm 2 mps 753 mmHg 89%
    02:00 +24°C° 0 mm 2 mps 752 mmHg 90%
    03:00 +24°C° 0 mm 1 mps 752 mmHg 91%
    04:00 +25°C° 0 mm 1 mps 752 mmHg 90%
    05:00 +25°C° 0 mm 1 mps 752 mmHg 89%
    06:00 +26°C° 0 mm 1 mps 753 mmHg 88%
    07:00 +27°C° 0.8 mm 2 mps 753 mmHg 83%
    08:00 +28°C° 0.8 mm 2 mps 752 mmHg 79%
    09:00 +30°C° 0.8 mm 2 mps 752 mmHg 74%
    10:00 +30°C° 1.7 mm 2 mps 752 mmHg 74%
    11:00 +30°C° 1.7 mm 2 mps 752 mmHg 73%
    12:00 +31°C° 1.7 mm 2 mps 752 mmHg 72%
    13:00 +31°C° 1.4 mm 2 mps 751 mmHg 72%
    14:00 +31°C° 1.4 mm 2 mps 751 mmHg 72%
    15:00 +31°C° 1.4 mm 2 mps 751 mmHg 71%
    16:00 +30°C° 0.6 mm 2 mps 750 mmHg 75%
    17:00 +29°C° 0.6 mm 2 mps 750 mmHg 79%
    18:00 +28°C° 0.6 mm 2 mps 750 mmHg 83%
    19:00 +27°C° 0.3 mm 2 mps 751 mmHg 84%
    20:00 +27°C° 0.3 mm 2 mps 751 mmHg 85%
    21:00 +26°C° 0.3 mm 2 mps 751 mmHg 87%
    22:00 +26°C° 0 mm 2 mps 750 mmHg 87%
    23:00 +25°C° 0 mm 2 mps 750 mmHg 88%

    Tomorrow, 19 June, Wednesday

    Time Temperature Precipitation Wind Pressure Humidity
    00:00 +25°C° 0 mm 2 mps 750 mmHg 89%
    01:00 +25°C° 0.2 mm 2 mps 750 mmHg 90%
    02:00 +24°C° 0.2 mm 2 mps 750 mmHg 90%
    03:00 +24°C° 0.2 mm 2 mps 750 mmHg 91%
    04:00 +24°C° 0.8 mm 2 mps 750 mmHg 92%
    05:00 +24°C° 0.8 mm 2 mps 750 mmHg 92%
    06:00 +25°C° 0.8 mm 2 mps 750 mmHg 93%
    07:00 +26°C° 0.3 mm 2 mps 750 mmHg 87%
    08:00 +28°C° 0.3 mm 2 mps 750 mmHg 80%
    09:00 +29°C° 0.3 mm 3 mps 750 mmHg 74%
    10:00 +31°C° 0.1 mm 3 mps 750 mmHg 68%
    11:00 +33°C° 0.1 mm 3 mps 750 mmHg 62%
    12:00 +34°C° 0.1 mm 4 mps 749 mmHg 55%
    13:00 +34°C° 0.1 mm 4 mps 749 mmHg 56%
    14:00 +34°C° 0.1 mm 4 mps 749 mmHg 56%
    15:00 +34°C° 0.1 mm 4 mps 748 mmHg 57%
    16:00 +33°C° 0.4 mm 4 mps 748 mmHg 62%
    17:00 +31°C° 0.4 mm 3 mps 748 mmHg 67%
    18:00 +30°C° 0.4 mm 3 mps 748 mmHg 73%
    19:00 +29°C° 0 mm 3 mps 749 mmHg 76%
    20:00 +28°C° 0 mm 3 mps 749 mmHg 78%
    21:00 +27°C° 0 mm 2 mps 749 mmHg 81%
    22:00 +27°C° 0 mm 3 mps 749 mmHg 82%
    23:00 +27°C° 0 mm 3 mps 749 mmHg 82%

    Day after tomorrow, 20 June, Thursday

    Time Temperature Precipitation Wind Pressure Humidity
    00:00 +26°C° 0 mm 4 mps 749 mmHg 83%
    01:00 +26°C° 0 mm 4 mps 749 mmHg 85%
    02:00 +26°C° 0 mm 4 mps 749 mmHg 87%
    03:00 +26°C° 0 mm 4 mps 748 mmHg 89%
    04:00 +26°C° 0 mm 4 mps 749 mmHg 89%
    05:00 +26°C° 0 mm 4 mps 749 mmHg 88%
    06:00 +27°C° 0 mm 4 mps 749 mmHg 87%
    07:00 +28°C° 0 mm 4 mps 749 mmHg 80%
    08:00 +30°C° 0 mm 5 mps 749 mmHg 72%
    09:00 +33°C° 0 mm 5 mps 750 mmHg 65%
    10:00 +34°C° 0 mm 5 mps 749 mmHg 59%
    11:00 +35°C° 0 mm 6 mps 749 mmHg 54%
    12:00 +36°C° 0 mm 6 mps 749 mmHg 48%
    13:00 +38°C° 0 mm 6 mps 748 mmHg 47%
    14:00 +38°C° 0 mm 6 mps 748 mmHg 46%
    15:00 +38°C° 0 mm 6 mps 748 mmHg 45%
    16:00 +36°C° 0 mm 5 mps 748 mmHg 51%
    17:00 +34°C° 0 mm 5 mps 748 mmHg 56%
    18:00 +33°C° 0 mm 4 mps 748 mmHg 62%
    19:00 +30°C° 2.7 mm 3 mps 748 mmHg 70%
    20:00 +28°C° 2.7 mm 2 mps 749 mmHg 78%
    21:00 +26°C° 2.7 mm 1 mps 749 mmHg 87%
    22:00 +26°C° 0.1 mm 2 mps 749 mmHg 88%
    23:00 +26°C° 0.1 mm 2 mps 749 mmHg 89%

    21 June, Friday

    Time Temperature Precipitation Wind Pressure Humidity
    00:00 +26°C° 0.1 mm 3 mps 749 mmHg 90%
    01:00 +25°C° 0 mm 3 mps 750 mmHg 91%
    02:00 +25°C° 0 mm 2 mps 750 mmHg 91%
    03:00 +25°C° 0 mm 2 mps 750 mmHg 91%
    04:00 +25°C° 0 mm 2 mps 750 mmHg 90%
    05:00 +25°C° 0 mm 3 mps 751 mmHg 89%
    06:00 +26°C° 0 mm 3 mps 752 mmHg 88%
    07:00 +28°C° 0 mm 3 mps 752 mmHg 78%
    08:00 +30°C° 0 mm 3 mps 752 mmHg 69%
    09:00 +33°C° 0 mm 4 mps 752 mmHg 60%
    10:00 +34°C° 0 mm 4 mps 752 mmHg 54%
    11:00 +35°C° 0 mm 4 mps 752 mmHg 48%
    12:00 +37°C° 0 mm 4 mps 752 mmHg 42%
    13:00 +37°C° 0 mm 4 mps 752 mmHg 41%
    14:00 +37°C° 0 mm 3 mps 752 mmHg 39%
    15:00 +38°C° 0 mm 3 mps 752 mmHg 37%
    16:00 +36°C° 0 mm 3 mps 752 mmHg 43%
    17:00 +35°C° 0 mm 2 mps 752 mmHg 49%
    18:00 +32°C° 0 mm 2 mps 752 mmHg 55%
    19:00 +31°C° 0 mm 2 mps 753 mmHg 56%
    20:00 +30°C° 0 mm 1 mps 753 mmHg 57%
    21:00 +29°C° 0 mm 1 mps 754 mmHg 59%
    22:00 +28°C° 0 mm 1 mps 753 mmHg 60%
    23:00 +27°C° 0 mm 1 mps 753 mmHg 62%

    22 June, Saturday

    Time Temperature Precipitation Wind Pressure Humidity
    00:00 +26°C° 0 mm 1 mps 753 mmHg 64%
    01:00 +26°C° 0 mm 1 mps 753 mmHg 64%
    02:00 +26°C° 0 mm 1 mps 753 mmHg 65%
    03:00 +25°C° 0 mm 1 mps 754 mmHg 66%
    04:00 +26°C° 0 mm 1 mps 754 mmHg 66%
    05:00 +26°C° 0 mm 1 mps 754 mmHg 67%
    06:00 +27°C° 0 mm 1 mps 755 mmHg 67%
    07:00 +29°C° 0 mm 1 mps 755 mmHg 60%
    08:00 +32°C° 0 mm 1 mps 755 mmHg 54%
    09:00 +32°C° 0 mm 0 mps 755 mmHg 47%
    10:00 +35°C° 0 mm 1 mps 755 mmHg 45%
    11:00 +36°C° 0 mm 1 mps 755 mmHg 43%
    12:00 +38°C° 0 mm 2 mps 755 mmHg 41%
    13:00 +37°C° 0 mm 1 mps 755 mmHg 40%
    14:00 +39°C° 0 mm 1 mps 754 mmHg 40%
    15:00 +39°C° 0 mm 1 mps 754 mmHg 39%
    16:00 +34°C° 0.5 mm 1 mps 754 mmHg 50%
    17:00 +31°C° 0.5 mm 2 mps 753 mmHg 61%
    18:00 +27°C° 0.5 mm 3 mps 753 mmHg 73%
    19:00 +26°C° 0.9 mm 2 mps 754 mmHg 74%
    20:00 +25°C° 0.9 mm 2 mps 754 mmHg 74%
    21:00 +24°C° 0.9 mm 2 mps 754 mmHg 75%
    22:00 +24°C° 0 mm 1 mps 754 mmHg 75%
    23:00 +24°C° 0 mm 1 mps 754 mmHg 75%

    23 June, Sunday

    Time Temperature Precipitation Wind Pressure Humidity
    00:00 +22°C° 0 mm 0 mps 754 mmHg 75%
    01:00 +23°C° 0 mm 1 mps 754 mmHg 75%
    02:00 +23°C° 0 mm 1 mps 754 mmHg 76%
    03:00 +23°C° 0 mm 1 mps 754 mmHg 76%
    04:00 +24°C° 0 mm 1 mps 754 mmHg 75%
    05:00 +25°C° 0 mm 1 mps 754 mmHg 75%
    06:00 +25°C° 0 mm 1 mps 755 mmHg 74%
    07:00 +28°C° 0 mm 1 mps 755 mmHg 67%
    08:00 +30°C° 0 mm 1 mps 755 mmHg 60%
    09:00 +33°C° 0 mm 1 mps 755 mmHg 54%
    10:00 +35°C° 0 mm 1 mps 755 mmHg 49%
    11:00 +37°C° 0 mm 1 mps 755 mmHg 45%
    12:00 +39°C° 0 mm 1 mps 755 mmHg 40%
    13:00 +39°C° 0 mm 1 mps 754 mmHg 40%
    14:00 +39°C° 0 mm 1 mps 753 mmHg 40%
    15:00 +39°C° 0 mm 1 mps 753 mmHg 40%
    16:00 +37°C° 0.1 mm 2 mps 753 mmHg 48%
    17:00 +35°C° 0.1 mm 2 mps 753 mmHg 56%
    18:00 +31°C° 0.1 mm 3 mps 753 mmHg 64%
    19:00 +30°C° 0.7 mm 2 mps 753 mmHg 71%
    20:00 +28°C° 0.7 mm 2 mps 754 mmHg 78%
    21:00 +26°C° 0.7 mm 2 mps 754 mmHg 84%
    22:00 +26°C° 0 mm 1 mps 754 mmHg 84%
    23:00 +26°C° 0 mm 1 mps 754 mmHg 84%
    Show more